| time (UTC) | temp C | wind direction | speed KPH | gust KPH | rain 1hr cm | rain 24hr cm | rain mn cm | humidity % | barometer mb |
| 20260508021342 | 8 | 162 | 0.0 | 0.0 | 0.00 | 0.00 | 0.00 | 85 | 1013.4 |
| 20260508020846 | 8 | 162 | 0.0 | 0.0 | 0.00 | 0.00 | 0.00 | 85 | 1013.4 |
| 20260508020347 | 8 | 162 | 0.0 | 0.0 | 0.00 | 0.00 | 0.00 | 85 | 1013.3 |
| 20260508015846 | 8 | 162 | 0.0 | 0.0 | 0.00 | 0.00 | 0.00 | 85 | 1013.3 |
| 20260508015401 | 8 | 162 | 0.0 | 1.6 | 0.00 | 0.00 | 0.00 | 85 | 1013.3 |
| 20260508014904 | 8 | 162 | 0.0 | 3.2 | 0.00 | 0.00 | 0.00 | 85 | 1013.3 |
| 20260508014342 | 8 | 162 | 1.6 | 3.2 | 0.00 | 0.00 | 0.00 | 84 | 1013.2 |
| 20260508013846 | 8 | 162 | 1.6 | 4.8 | 0.00 | 0.00 | 0.00 | 85 | 1013.2 |
| 20260508013340 | 8 | 162 | 1.6 | 4.8 | 0.00 | 0.00 | 0.00 | 84 | 1013.2 |
| 20260508012845 | 8 | 162 | 1.6 | 3.2 | 0.00 | 0.00 | 0.00 | 84 | 1013.2 |
| 20260508012349 | 9 | 162 | 0.0 | 4.8 | 0.00 | 0.00 | 0.00 | 84 | 1013.3 |
| 20260508011906 | 9 | 162 | 3.2 | 4.8 | 0.00 | 0.00 | 0.00 | 84 | 1013.2 |
| 20260508011400 | 9 | 162 | 3.2 | 6.4 | 0.00 | 0.00 | 0.00 | 84 | 1013.3 |
| 20260508010906 | 9 | 190 | 1.6 | 4.8 | 0.00 | 0.00 | 0.00 | 84 | 1013.3 |
| 20260508010346 | 9 | 190 | 3.2 | 4.8 | 0.00 | 0.00 | 0.00 | 84 | 1013.4 |
| 20260508005854 | 9 | 190 | 3.2 | 4.8 | 0.00 | 0.00 | 0.00 | 84 | 1013.4 |
| 20260508005413 | 9 | 190 | 4.8 | 4.8 | 0.00 | 0.00 | 0.00 | 84 | 1013.4 |
| 20260508004910 | 9 | 146 | 1.6 | 3.2 | 0.00 | 0.00 | 0.00 | 83 | 1013.4 |
| 20260508004348 | 9 | 146 | 0.0 | 3.2 | 0.00 | 0.00 | 0.00 | 83 | 1013.3 |
| 20260508003842 | 9 | 146 | 1.6 | 3.2 | 0.00 | 0.00 | 0.00 | 83 | 1013.3 |
| 20260508003344 | 9 | 146 | 1.6 | 3.2 | 0.00 | 0.00 | 0.00 | 83 | 1013.3 |
| 20260508002844 | 9 | 158 | 1.6 | 4.8 | 0.00 | 0.00 | 0.00 | 83 | 1013.3 |
| 20260508002407 | 9 | 159 | 1.6 | 4.8 | 0.00 | 0.00 | 0.00 | 83 | 1013.3 |
| 20260508001901 | 10 | 159 | 1.6 | 4.8 | 0.00 | 0.00 | 0.00 | 83 | 1013.4 |
| 20260508001402 | 10 | 162 | 3.2 | 4.8 | 0.00 | 0.00 | 0.00 | 83 | 1013.4 |
| 20260508000843 | 10 | 169 | 3.2 | 6.4 | 0.00 | 0.00 | 0.00 | 83 | 1013.4 |
| 20260508000358 | 10 | 182 | 4.8 | 6.4 | 0.00 | 0.00 | 0.00 | 83 | 1013.5 |
| 20260507235916 | 10 | 182 | 3.2 | 4.8 | 0.00 | 0.00 | 0.00 | 83 | 1013.5 |
| 20260507235415 | 10 | 180 | 3.2 | 4.8 | 0.00 | 0.00 | 0.00 | 83 | 1013.5 |
| 20260507234843 | 10 | 180 | 3.2 | 4.8 | 0.00 | 0.00 | 0.00 | 84 | 1013.5 |
| 20260507234427 | 10 | 180 | 1.6 | 4.8 | 0.00 | 0.00 | 0.00 | 84 | 1013.5 |
| 20260507233846 | 10 | 163 | 3.2 | 4.8 | 0.00 | 0.00 | 0.00 | 83 | 1013.5 |
| 20260507233402 | 10 | 60 | 1.6 | 4.8 | 0.00 | 0.00 | 0.00 | 83 | 1013.4 |
| 20260507232858 | 10 | 60 | 1.6 | 4.8 | 0.00 | 0.00 | 0.00 | 83 | 1013.5 |
| 20260507232354 | 10 | 24 | 1.6 | 4.8 | 0.00 | 0.00 | 0.00 | 82 | 1013.4 |
| 20260507231852 | 10 | 24 | 0.0 | 4.8 | 0.00 | 0.00 | 0.00 | 82 | 1013.5 |
| 20260507231347 | 10 | 24 | 1.6 | 3.2 | 0.00 | 0.00 | 0.00 | 82 | 1013.5 |
| 20260507230905 | 10 | 338 | 1.6 | 3.2 | 0.00 | 0.00 | 0.00 | 82 | 1013.5 |
| 20260507230343 | 10 | 338 | 0.0 | 0.0 | 0.00 | 0.00 | 0.00 | 81 | 1013.5 |
| 20260507225857 | 10 | 338 | 0.0 | 0.0 | 0.00 | 0.00 | 0.00 | 81 | 1013.5 |
| 20260507225340 | 10 | 338 | 0.0 | 0.0 | 0.00 | 0.00 | 0.00 | 81 | 1013.4 |
| 20260507224903 | 10 | 338 | 0.0 | 0.0 | 0.00 | 0.00 | 0.00 | 81 | 1013.4 |
| 20260507224401 | 10 | 338 | 0.0 | 1.6 | 0.00 | 0.00 | 0.00 | 81 | 1013.3 |
| 20260507223852 | 10 | 338 | 0.0 | 1.6 | 0.00 | 0.00 | 0.00 | 81 | 1013.3 |
| 20260507223353 | 10 | 338 | 0.0 | 0.0 | 0.00 | 0.00 | 0.00 | 81 | 1013.3 |
| 20260507222848 | 10 | 338 | 0.0 | 0.0 | 0.00 | 0.00 | 0.00 | 81 | 1013.3 |
| 20260507222344 | 10 | 338 | 0.0 | 0.0 | 0.00 | 0.00 | 0.00 | 81 | 1013.3 |
| 20260507221844 | 10 | 338 | 0.0 | 4.8 | 0.00 | 0.00 | 0.00 | 81 | 1013.3 |
| 20260507221342 | 10 | 338 | 0.0 | 4.8 | 0.00 | 0.00 | 0.00 | 80 | 1013.4 |
| 20260507220856 | 10 | 338 | 0.0 | 4.8 | 0.00 | 0.00 | 0.00 | 81 | 1013.3 |
| 20260507220355 | 10 | 338 | 0.0 | 6.4 | 0.00 | 0.00 | 0.00 | 80 | 1013.3 |
| 20260507215857 | 10 | 337 | 1.6 | 6.4 | 0.00 | 0.00 | 0.00 | 80 | 1013.3 |
| 20260507215412 | 10 | 281 | 3.2 | 9.7 | 0.00 | 0.00 | 0.00 | 80 | 1013.3 |
| 20260507214849 | 10 | 244 | 3.2 | 11.3 | 0.00 | 0.00 | 0.00 | 79 | 1013.3 |
| 20260507214341 | 10 | 210 | 8.0 | 12.9 | 0.00 | 0.00 | 0.00 | 79 | 1013.3 |
| 20260507213848 | 10 | 229 | 9.7 | 14.5 | 0.00 | 0.00 | 0.00 | 79 | 1013.2 |
| 20260507213405 | 10 | 204 | 11.3 | 14.5 | 0.00 | 0.00 | 0.00 | 79 | 1013.1 |
| 20260507212840 | 10 | 207 | 11.3 | 17.7 | 0.00 | 0.00 | 0.00 | 78 | 1013.1 |
| 20260507212358 | 10 | 215 | 11.3 | 17.7 | 0.00 | 0.00 | 0.00 | 78 | 1013.0 |
| 20260507211851 | 10 | 192 | 9.7 | 14.5 | 0.00 | 0.00 | 0.00 | 78 | 1012.9 |
| 20260507211409 | 10 | 205 | 9.7 | 14.5 | 0.00 | 0.00 | 0.00 | 78 | 1012.9 |
| 20260507210900 | 10 | 201 | 9.7 | 16.1 | 0.00 | 0.00 | 0.00 | 77 | 1012.9 |
| 20260507210421 | 10 | 197 | 9.7 | 16.1 | 0.00 | 0.00 | 0.00 | 77 | 1012.8 |
| 20260507205900 | 10 | 212 | 9.7 | 12.9 | 0.00 | 0.00 | 0.00 | 77 | 1012.7 |
| 20260507205359 | 11 | 207 | 8.0 | 12.9 | 0.00 | 0.00 | 0.00 | 76 | 1012.7 |
| 20260507204859 | 11 | 197 | 8.0 | 11.3 | 0.00 | 0.00 | 0.00 | 76 | 1012.7 |
| 20260507204353 | 11 | 190 | 6.4 | 8.0 | 0.00 | 0.00 | 0.00 | 76 | 1012.7 |
| 20260507203849 | 11 | 196 | 3.2 | 11.3 | 0.00 | 0.00 | 0.00 | 75 | 1012.6 |
| 20260507203349 | 11 | 198 | 8.0 | 11.3 | 0.00 | 0.00 | 0.00 | 75 | 1012.5 |
| 20260507202850 | 11 | 199 | 8.0 | 14.5 | 0.00 | 0.00 | 0.00 | 75 | 1012.5 |
| 20260507202350 | 11 | 211 | 11.3 | 16.1 | 0.00 | 0.00 | 0.00 | 75 | 1012.4 |
| 20260507201854 | 11 | 210 | 12.9 | 17.7 | 0.00 | 0.00 | 0.00 | 75 | 1012.3 |
| 20260507201349 | 11 | 219 | 12.9 | 17.7 | 0.00 | 0.00 | 0.00 | 74 | 1012.2 |
| 20260507200846 | 11 | 213 | 12.9 | 17.7 | 0.00 | 0.00 | 0.00 | 74 | 1012.2 |
| 20260507200343 | 11 | 217 | 12.9 | 16.1 | 0.00 | 0.00 | 0.00 | 74 | 1012.1 |
| 20260507195841 | 11 | 215 | 11.3 | 17.7 | 0.00 | 0.00 | 0.00 | 74 | 1012.0 |
| 20260507195400 | 11 | 209 | 9.7 | 16.1 | 0.00 | 0.00 | 0.00 | 74 | 1011.9 |
| 20260507194902 | 11 | 223 | 12.9 | 17.7 | 0.00 | 0.00 | 0.00 | 74 | 1011.9 |
| 20260507194402 | 11 | 214 | 12.9 | 19.3 | 0.00 | 0.00 | 0.00 | 74 | 1011.9 |
| 20260507193904 | 11 | 216 | 12.9 | 19.3 | 0.00 | 0.00 | 0.00 | 73 | 1011.8 |
| 20260507193341 | 11 | 204 | 14.5 | 17.7 | 0.00 | 0.00 | 0.00 | 73 | 1011.8 |
| 20260507192858 | 11 | 204 | 12.9 | 17.7 | 0.00 | 0.00 | 0.00 | 73 | 1011.8 |
| 20260507192357 | 12 | 207 | 14.5 | 17.7 | 0.00 | 0.00 | 0.00 | 73 | 1011.8 |
| 20260507191916 | 12 | 234 | 14.5 | 17.7 | 0.00 | 0.00 | 0.00 | 73 | 1011.7 |
| 20260507191350 | 12 | 222 | 16.1 | 19.3 | 0.00 | 0.00 | 0.00 | 72 | 1011.7 |
| 20260507190843 | 12 | 217 | 16.1 | 19.3 | 0.00 | 0.00 | 0.00 | 72 | 1011.7 |
| 20260507190401 | 12 | 211 | 12.9 | 19.3 | 0.00 | 0.00 | 0.00 | 72 | 1011.6 |
| 20260507185900 | 12 | 232 | 12.9 | 24.1 | 0.00 | 0.00 | 0.00 | 72 | 1011.6 |
| 20260507185353 | 12 | 206 | 17.7 | 25.7 | 0.00 | 0.00 | 0.00 | 71 | 1011.6 |
| 20260507184851 | 12 | 219 | 17.7 | 25.7 | 0.00 | 0.00 | 0.00 | 70 | 1011.6 |
| 20260507184348 | 12 | 209 | 20.9 | 25.7 | 0.00 | 0.00 | 0.00 | 70 | 1011.5 |
| 20260507183902 | 12 | 225 | 14.5 | 22.5 | 0.00 | 0.00 | 0.00 | 70 | 1011.5 |
| 20260507183410 | 12 | 219 | 16.1 | 22.5 | 0.00 | 0.00 | 0.00 | 69 | 1011.4 |
| 20260507182840 | 12 | 217 | 12.9 | 16.1 | 0.00 | 0.00 | 0.00 | 67 | 1011.3 |
| 20260507182343 | 12 | 223 | 9.7 | 14.5 | 0.00 | 0.00 | 0.00 | 66 | 1011.2 |
| 20260507181903 | 12 | 219 | 11.3 | 14.5 | 0.00 | 0.00 | 0.00 | 66 | 1011.2 |
| 20260507181353 | 13 | 232 | 11.3 | 14.5 | 0.00 | 0.00 | 0.00 | 65 | 1011.1 |
| 20260507180855 | 13 | 208 | 11.3 | 16.1 | 0.00 | 0.00 | 0.00 | 65 | 1011.1 |
| 20260507180356 | 13 | 207 | 12.9 | 16.1 | 0.00 | 0.00 | 0.00 | 64 | 1011.1 |
| 20260507175850 | 13 | 237 | 11.3 | 16.1 | 0.00 | 0.00 | 0.00 | 64 | 1011.1 |
| 20260507175348 | 13 | 217 | 12.9 | 16.1 | 0.00 | 0.00 | 0.00 | 64 | 1011.1 |
| 20260507174844 | 13 | 224 | 11.3 | 14.5 | 0.00 | 0.00 | 0.00 | 65 | 1011.1 |
| 20260507174347 | 13 | 251 | 11.3 | 14.5 | 0.00 | 0.00 | 0.00 | 64 | 1011.1 |
| 20260507173843 | 13 | 205 | 9.7 | 14.5 | 0.00 | 0.00 | 0.00 | 65 | 1011.1 |
| 20260507173342 | 13 | 221 | 11.3 | 17.7 | 0.00 | 0.00 | 0.00 | 65 | 1011.1 |
| 20260507172903 | 13 | 213 | 11.3 | 17.7 | 0.00 | 0.00 | 0.00 | 64 | 1011.1 |
| 20260507172353 | 13 | 211 | 14.5 | 16.1 | 0.00 | 0.00 | 0.00 | 65 | 1011.0 |
| 20260507171912 | 13 | 259 | 14.5 | 20.9 | 0.00 | 0.00 | 0.00 | 63 | 1011.0 |
| 20260507171343 | 13 | 264 | 14.5 | 20.9 | 0.00 | 0.00 | 0.00 | 64 | 1011.0 |
| 20260507170841 | 13 | 220 | 16.1 | 25.7 | 0.00 | 0.00 | 0.00 | 61 | 1011.0 |
| 20260507170343 | 13 | 224 | 19.3 | 25.7 | 0.00 | 0.00 | 0.00 | 63 | 1011.0 |
| 20260507165903 | 13 | 230 | 17.7 | 25.7 | 0.00 | 0.00 | 0.00 | 63 | 1011.0 |
| 20260507165401 | 14 | 238 | 17.7 | 25.7 | 0.00 | 0.00 | 0.00 | 62 | 1010.9 |
| 20260507164840 | 14 | 218 | 16.1 | 24.1 | 0.00 | 0.00 | 0.00 | 61 | 1010.9 |
| 20260507164357 | 14 | 226 | 12.9 | 24.1 | 0.00 | 0.00 | 0.00 | 63 | 1010.9 |
| 20260507163857 | 13 | 238 | 16.1 | 22.5 | 0.00 | 0.00 | 0.00 | 60 | 1010.9 |
| 20260507163353 | 13 | 207 | 12.9 | 17.7 | 0.00 | 0.00 | 0.00 | 61 | 1010.8 |
| 20260507162851 | 13 | 208 | 12.9 | 17.7 | 0.00 | 0.00 | 0.00 | 60 | 1010.9 |
| 20260507162349 | 13 | 213 | 12.9 | 16.1 | 0.00 | 0.00 | 0.00 | 62 | 1010.9 |
| 20260507161847 | 14 | 224 | 14.5 | 22.5 | 0.00 | 0.00 | 0.00 | 60 | 1010.8 |
| 20260507161344 | 15 | 227 | 14.5 | 29.0 | 0.00 | 0.00 | 0.00 | 57 | 1010.8 |
| 20260507160900 | 15 | 240 | 19.3 | 27.4 | 0.00 | 0.00 | 0.00 | 56 | 1010.8 |
| 20260507160358 | 15 | 204 | 19.3 | 30.6 | 0.00 | 0.00 | 0.00 | 56 | 1010.8 |
| 20260507155855 | 15 | 225 | 22.5 | 30.6 | 0.00 | 0.00 | 0.00 | 56 | 1010.7 |
| 20260507155357 | 16 | 236 | 22.5 | 30.6 | 0.00 | 0.00 | 0.00 | 56 | 1010.6 |
| 20260507154859 | 15 | 209 | 20.9 | 33.8 | 0.00 | 0.00 | 0.00 | 54 | 1010.8 |
| 20260507154349 | 15 | 245 | 20.9 | 25.7 | 0.00 | 0.00 | 0.00 | 55 | 1010.8 |
| 20260507153845 | 15 | 242 | 14.5 | 35.4 | 0.00 | 0.00 | 0.00 | 53 | 1010.7 |
| 20260507153348 | 16 | 233 | 24.1 | 35.4 | 0.00 | 0.00 | 0.00 | 53 | 1010.8 |
| 20260507152844 | 15 | 220 | 17.7 | 25.7 | 0.00 | 0.00 | 0.00 | 54 | 1010.6 |
| 20260507152347 | 15 | 206 | 16.1 | 27.4 | 0.00 | 0.00 | 0.00 | 52 | 1010.7 |
| 20260507151840 | 16 | 237 | 19.3 | 30.6 | 0.00 | 0.00 | 0.00 | 52 | 1010.7 |
| 20260507151359 | 16 | 196 | 17.7 | 29.0 | 0.00 | 0.00 | 0.00 | 55 | 1010.8 |
| 20260507150849 | 16 | 259 | 19.3 | 32.2 | 0.00 | 0.00 | 0.00 | 56 | 1010.8 |
| 20260507150350 | 16 | 217 | 20.9 | 32.2 | 0.00 | 0.00 | 0.00 | 55 | 1010.8 |
| 20260507145851 | 16 | 211 | 19.3 | 24.1 | 0.00 | 0.00 | 0.00 | 57 | 1010.8 |
| 20260507145344 | 15 | 204 | 17.7 | 29.0 | 0.00 | 0.00 | 0.00 | 61 | 1010.9 |
| 20260507144841 | 14 | 232 | 19.3 | 29.0 | 0.00 | 0.00 | 0.00 | 64 | 1010.9 |
| 20260507144401 | 14 | 214 | 11.3 | 17.7 | 0.00 | 0.00 | 0.00 | 63 | 1010.9 |
| 20260507143855 | 14 | 223 | 14.5 | 19.3 | 0.00 | 0.00 | 0.00 | 62 | 1011.0 |
| 20260507143355 | 14 | 193 | 12.9 | 24.1 | 0.00 | 0.00 | 0.00 | 64 | 1011.0 |
| 20260507142853 | 15 | 247 | 14.5 | 24.1 | 0.00 | 0.00 | 0.00 | 65 | 1011.0 |
| 20260507142406 | 15 | 216 | 16.1 | 30.6 | 0.00 | 0.00 | 0.00 | 61 | 1011.1 |
| 20260507141841 | 15 | 239 | 22.5 | 30.6 | 0.00 | 0.00 | 0.00 | 65 | 1011.2 |
| 20260507141341 | 13 | 246 | 17.7 | 25.7 | 0.00 | 0.00 | 0.00 | 68 | 1011.2 |
| 20260507140918 | 13 | 211 | 16.1 | 20.9 | 0.00 | 0.00 | 0.00 | 66 | 1011.1 |
| 20260507140352 | 13 | 216 | 9.7 | 17.7 | 0.00 | 0.00 | 0.00 | 67 | 1011.1 |
| 20260507135848 | 13 | 211 | 14.5 | 20.9 | 0.00 | 0.00 | 0.00 | 66 | 1011.2 |
| 20260507135345 | 14 | 217 | 14.5 | 20.9 | 0.00 | 0.00 | 0.00 | 65 | 1011.2 |
| 20260507134842 | 15 | 211 | 16.1 | 19.3 | 0.00 | 0.00 | 0.00 | 65 | 1011.2 |
| 20260507134420 | 14 | 196 | 9.7 | 16.1 | 0.00 | 0.00 | 0.00 | 68 | 1011.2 |
| 20260507133850 | 13 | 190 | 8.0 | 19.3 | 0.00 | 0.00 | 0.00 | 68 | 1011.3 |
| 20260507133348 | 13 | 191 | 11.3 | 19.3 | 0.00 | 0.00 | 0.00 | 69 | 1011.3 |
| 20260507132910 | 13 | 160 | 11.3 | 19.3 | 0.00 | 0.00 | 0.00 | 70 | 1011.4 |
| 20260507132346 | 13 | 214 | 12.9 | 17.7 | 0.00 | 0.00 | 0.00 | 69 | 1011.4 |
| 20260507131841 | 13 | 235 | 11.3 | 24.1 | 0.00 | 0.00 | 0.00 | 69 | 1011.3 |
| 20260507131358 | 13 | 229 | 16.1 | 24.1 | 0.00 | 0.00 | 0.00 | 67 | 1011.3 |
| 20260507130849 | 13 | 235 | 16.1 | 20.9 | 0.00 | 0.00 | 0.00 | 67 | 1011.3 |
| 20260507130353 | 13 | 171 | 12.9 | 22.5 | 0.00 | 0.00 | 0.00 | 66 | 1011.3 |
| 20260507125857 | 14 | 184 | 16.1 | 24.1 | 0.00 | 0.00 | 0.00 | 64 | 1011.4 |
| 20260507125357 | 13 | 223 | 20.9 | 25.7 | 0.00 | 0.00 | 0.00 | 67 | 1011.4 |
| 20260507124857 | 13 | 175 | 12.9 | 33.8 | 0.00 | 0.00 | 0.00 | 66 | 1011.5 |
| 20260507124352 | 13 | 188 | 20.9 | 33.8 | 0.00 | 0.00 | 0.00 | 67 | 1011.6 |
| 20260507123904 | 14 | 192 | 22.5 | 30.6 | 0.00 | 0.00 | 0.00 | 65 | 1011.5 |
| 20260507123357 | 14 | 207 | 17.7 | 27.4 | 0.00 | 0.00 | 0.00 | 66 | 1011.6 |
| 20260507122859 | 13 | 161 | 16.1 | 24.1 | 0.00 | 0.00 | 0.00 | 64 | 1011.5 |
| 20260507122355 | 14 | 184 | 14.5 | 27.4 | 0.00 | 0.00 | 0.00 | 64 | 1011.7 |
| 20260507121858 | 15 | 198 | 20.9 | 29.0 | 0.00 | 0.00 | 0.00 | 62 | 1011.6 |
| 20260507121353 | 15 | 188 | 19.3 | 29.0 | 0.00 | 0.00 | 0.00 | 62 | 1011.7 |
| 20260507120844 | 13 | 184 | 12.9 | 27.4 | 0.00 | 0.00 | 0.00 | 66 | 1011.7 |
| 20260507120346 | 13 | 154 | 16.1 | 25.7 | 0.00 | 0.00 | 0.00 | 64 | 1011.9 |
| 20260507115844 | 14 | 206 | 16.1 | 29.0 | 0.00 | 0.00 | 0.00 | 64 | 1011.9 |
| 20260507115424 | 14 | 190 | 14.5 | 25.7 | 0.00 | 0.00 | 0.00 | 67 | 1011.9 |
| 20260507114920 | 13 | 206 | 17.7 | 24.1 | 0.00 | 0.00 | 0.00 | 66 | 1012.0 |
| 20260507114400 | 13 | 126 | 12.9 | 25.7 | 0.00 | 0.00 | 0.00 | 66 | 1012.1 |
| 20260507113851 | 14 | 182 | 16.1 | 22.5 | 0.00 | 0.00 | 0.00 | 64 | 1012.2 |
| 20260507113353 | 13 | 193 | 14.5 | 22.5 | 0.00 | 0.00 | 0.00 | 67 | 1012.2 |
| 20260507112916 | 13 | 173 | 12.9 | 20.9 | 0.00 | 0.00 | 0.00 | 72 | 1012.2 |
| 20260507112350 | 12 | 179 | 8.0 | 14.5 | 0.00 | 0.00 | 0.00 | 71 | 1012.2 |
| 20260507111849 | 12 | 209 | 11.3 | 16.1 | 0.00 | 0.00 | 0.00 | 72 | 1012.3 |
| 20260507111348 | 12 | 175 | 12.9 | 20.9 | 0.00 | 0.00 | 0.00 | 71 | 1012.3 |
| 20260507110841 | 12 | 165 | 14.5 | 20.9 | 0.00 | 0.00 | 0.00 | 70 | 1012.3 |
| 20260507110357 | 12 | 190 | 14.5 | 19.3 | 0.00 | 0.00 | 0.00 | 70 | 1012.3 |
| 20260507105919 | 12 | 211 | 9.7 | 19.3 | 0.00 | 0.00 | 0.00 | 71 | 1012.3 |
| 20260507105344 | 12 | 216 | 14.5 | 19.3 | 0.00 | 0.00 | 0.00 | 70 | 1012.3 |
| 20260507104840 | 12 | 207 | 16.1 | 25.7 | 0.00 | 0.00 | 0.00 | 69 | 1012.4 |
| 20260507104357 | 12 | 144 | 11.3 | 25.7 | 0.00 | 0.00 | 0.00 | 68 | 1012.4 |
| 20260507103855 | 12 | 203 | 16.1 | 22.5 | 0.00 | 0.00 | 0.00 | 67 | 1012.5 |
| 20260507103345 | 12 | 217 | 17.7 | 25.7 | 0.00 | 0.00 | 0.00 | 67 | 1012.5 |
| 20260507102841 | 12 | 202 | 17.7 | 25.7 | 0.00 | 0.00 | 0.00 | 68 | 1012.5 |
| 20260507102356 | 12 | 186 | 14.5 | 29.0 | 0.00 | 0.00 | 0.00 | 68 | 1012.5 |
| 20260507101859 | 12 | 194 | 20.9 | 29.0 | 0.00 | 0.00 | 0.00 | 67 | 1012.5 |
| 20260507101359 | 12 | 163 | 19.3 | 25.7 | 0.00 | 0.00 | 0.00 | 63 | 1012.4 |
| 20260507100853 | 12 | 217 | 16.1 | 29.0 | 0.00 | 0.00 | 0.00 | 65 | 1012.5 |
| 20260507100350 | 12 | 199 | 19.3 | 29.0 | 0.00 | 0.00 | 0.00 | 66 | 1012.5 |
| 20260507095843 | 13 | 132 | 16.1 | 22.5 | 0.00 | 0.00 | 0.00 | 66 | 1012.5 |
| 20260507095401 | 12 | 206 | 12.9 | 25.7 | 0.00 | 0.00 | 0.00 | 70 | 1012.4 |
| 20260507094855 | 12 | 197 | 17.7 | 25.7 | 0.00 | 0.00 | 0.00 | 72 | 1012.4 |
| 20260507094355 | 11 | 211 | 20.9 | 27.4 | 0.00 | 0.00 | 0.00 | 71 | 1012.5 |
| 20260507093852 | 11 | 204 | 14.5 | 24.1 | 0.00 | 0.00 | 0.00 | 74 | 1012.5 |
| 20260507093352 | 11 | 201 | 16.1 | 24.1 | 0.00 | 0.00 | 0.00 | 74 | 1012.5 |
| 20260507092844 | 11 | 209 | 14.5 | 19.3 | 0.00 | 0.00 | 0.00 | 73 | 1012.4 |
| 20260507092345 | 11 | 194 | 12.9 | 20.9 | 0.00 | 0.00 | 0.00 | 74 | 1012.4 |
| 20260507091856 | 11 | 196 | 16.1 | 25.7 | 0.00 | 0.00 | 0.00 | 72 | 1012.4 |
| 20260507091355 | 11 | 195 | 19.3 | 25.7 | 0.00 | 0.00 | 0.00 | 72 | 1012.4 |
| 20260507090855 | 11 | 198 | 17.7 | 29.0 | 0.00 | 0.00 | 0.00 | 71 | 1012.4 |
| 20260507090417 | 11 | 198 | 19.3 | 27.4 | 0.00 | 0.00 | 0.00 | 71 | 1012.4 |
| 20260507085855 | 11 | 200 | 19.3 | 27.4 | 0.00 | 0.00 | 0.00 | 71 | 1012.4 |
| 20260507085349 | 11 | 217 | 16.1 | 17.7 | 0.00 | 0.00 | 0.00 | 75 | 1012.4 |
| 20260507084842 | 11 | 186 | 12.9 | 16.1 | 0.00 | 0.00 | 0.00 | 78 | 1012.4 |
| 20260507084404 | 11 | 165 | 9.7 | 17.7 | 0.00 | 0.00 | 0.00 | 78 | 1012.4 |
| 20260507083859 | 11 | 164 | 11.3 | 17.7 | 0.00 | 0.00 | 0.00 | 78 | 1012.4 |
| 20260507083353 | 11 | 157 | 12.9 | 17.7 | 0.00 | 0.00 | 0.00 | 79 | 1012.4 |
| 20260507082921 | 11 | 159 | 8.0 | 17.7 | 0.00 | 0.00 | 0.00 | 80 | 1012.4 |
| 20260507082407 | 11 | 105 | 9.7 | 16.1 | 0.00 | 0.00 | 0.00 | 80 | 1012.4 |
| 20260507081847 | 11 | 118 | 11.3 | 17.7 | 0.00 | 0.00 | 0.00 | 80 | 1012.4 |
| 20260507081347 | 10 | 118 | 9.7 | 17.7 | 0.00 | 0.00 | 0.00 | 80 | 1012.5 |
| 20260507080846 | 10 | 157 | 9.7 | 16.1 | 0.00 | 0.00 | 0.00 | 82 | 1012.5 |
| 20260507080341 | 10 | 179 | 8.0 | 17.7 | 0.00 | 0.00 | 0.00 | 82 | 1012.6 |
| 20260507075845 | 10 | 141 | 8.0 | 14.5 | 0.00 | 0.00 | 0.00 | 82 | 1012.6 |
| 20260507075340 | 10 | 148 | 8.0 | 17.7 | 0.00 | 0.00 | 0.00 | 83 | 1012.6 |
| 20260507074918 | 10 | 152 | 11.3 | 17.7 | 0.00 | 0.00 | 0.00 | 83 | 1012.6 |
| 20260507074352 | 9 | 177 | 6.4 | 12.9 | 0.00 | 0.00 | 0.00 | 84 | 1012.5 |
| 20260507073847 | 9 | 165 | 4.8 | 14.5 | 0.00 | 0.00 | 0.00 | 84 | 1012.5 |
| 20260507073348 | 9 | 148 | 8.0 | 16.1 | 0.00 | 0.00 | 0.00 | 83 | 1012.5 |
| 20260507072907 | 9 | 125 | 6.4 | 16.1 | 0.00 | 0.00 | 0.00 | 84 | 1012.5 |
| 20260507072357 | 9 | 135 | 6.4 | 14.5 | 0.00 | 0.00 | 0.00 | 84 | 1012.4 |
| 20260507071910 | 9 | 137 | 8.0 | 14.5 | 0.00 | 0.00 | 0.00 | 84 | 1012.4 |
| 20260507071345 | 9 | 190 | 9.7 | 14.5 | 0.00 | 0.00 | 0.00 | 84 | 1012.4 |
| 20260507070903 | 9 | 180 | 6.4 | 11.3 | 0.00 | 0.00 | 0.00 | 84 | 1012.4 |
| 20260507070347 | 9 | 157 | 6.4 | 12.9 | 0.00 | 0.00 | 0.00 | 85 | 1012.4 |
| 20260507065840 | 9 | 161 | 8.0 | 11.3 | 0.00 | 0.00 | 0.00 | 85 | 1012.4 |
| 20260507065342 | 9 | 173 | 8.0 | 12.9 | 0.00 | 0.00 | 0.00 | 85 | 1012.4 |
| 20260507064900 | 9 | 148 | 6.4 | 12.9 | 0.00 | 0.00 | 0.00 | 85 | 1012.4 |
| 20260507064349 | 8 | 169 | 6.4 | 8.0 | 0.00 | 0.00 | 0.00 | 85 | 1012.3 |
| 20260507063846 | 8 | 180 | 4.8 | 8.0 | 0.00 | 0.00 | 0.00 | 86 | 1012.3 |
| 20260507063351 | 8 | 172 | 6.4 | 8.0 | 0.00 | 0.00 | 0.00 | 86 | 1012.3 |
| 20260507062846 | 8 | 183 | 4.8 | 9.7 | 0.00 | 0.00 | 0.00 | 87 | 1012.3 |
| 20260507062344 | 8 | 170 | 4.8 | 9.7 | 0.00 | 0.00 | 0.00 | 87 | 1012.3 |
| 20260507061844 | 8 | 196 | 4.8 | 8.0 | 0.00 | 0.00 | 0.00 | 87 | 1012.3 |
| 20260507061350 | 8 | 190 | 6.4 | 9.7 | 0.00 | 0.00 | 0.00 | 87 | 1012.3 |
| 20260507060851 | 8 | 191 | 6.4 | 9.7 | 0.00 | 0.00 | 0.00 | 87 | 1012.4 |
| 20260507060345 | 8 | 189 | 6.4 | 8.0 | 0.00 | 0.00 | 0.00 | 87 | 1012.5 |
| 20260507055849 | 8 | 197 | 6.4 | 8.0 | 0.00 | 0.00 | 0.00 | 86 | 1012.4 |
| 20260507055406 | 8 | 196 | 4.8 | 8.0 | 0.00 | 0.00 | 0.00 | 86 | 1012.4 |
| 20260507054907 | 8 | 190 | 4.8 | 8.0 | 0.00 | 0.00 | 0.00 | 86 | 1012.4 |
| 20260507054342 | 8 | 184 | 3.2 | 6.4 | 0.00 | 0.00 | 0.00 | 86 | 1012.4 |
| 20260507053843 | 8 | 186 | 3.2 | 6.4 | 0.00 | 0.00 | 0.00 | 86 | 1012.4 |
| 20260507053353 | 8 | 186 | 3.2 | 6.4 | 0.00 | 0.00 | 0.00 | 86 | 1012.4 |
| 20260507052911 | 8 | 194 | 3.2 | 4.8 | 0.00 | 0.00 | 0.00 | 86 | 1012.4 |
| 20260507052346 | 8 | 163 | 1.6 | 4.8 | 0.00 | 0.00 | 0.00 | 85 | 1012.3 |
| 20260507051843 | 8 | 169 | 1.6 | 4.8 | 0.00 | 0.00 | 0.00 | 85 | 1012.3 |
| 20260507051354 | 8 | 169 | 1.6 | 4.8 | 0.00 | 0.00 | 0.00 | 85 | 1012.3 |
| 20260507050854 | 8 | 182 | 0.0 | 4.8 | 0.00 | 0.00 | 0.00 | 85 | 1012.2 |
| 20260507050347 | 8 | 182 | 3.2 | 8.0 | 0.00 | 0.00 | 0.00 | 85 | 1012.2 |
| 20260507045906 | 8 | 188 | 3.2 | 8.0 | 0.00 | 0.00 | 0.00 | 85 | 1012.1 |
| 20260507045419 | 8 | 190 | 3.2 | 6.4 | 0.00 | 0.00 | 0.00 | 85 | 1012.2 |
| 20260507044840 | 8 | 186 | 3.2 | 6.4 | 0.00 | 0.00 | 0.00 | 85 | 1012.1 |
| 20260507044356 | 8 | 185 | 4.8 | 8.0 | 0.00 | 0.00 | 0.00 | 85 | 1012.2 |
| 20260507043851 | 8 | 191 | 4.8 | 8.0 | 0.00 | 0.00 | 0.00 | 85 | 1012.2 |
| 20260507043407 | 8 | 166 | 4.8 | 8.0 | 0.00 | 0.00 | 0.00 | 85 | 1012.2 |
| 20260507042845 | 8 | 167 | 4.8 | 9.7 | 0.00 | 0.00 | 0.00 | 84 | 1012.2 |
| 20260507042407 | 8 | 163 | 4.8 | 8.0 | 0.00 | 0.00 | 0.00 | 84 | 1012.1 |
| 20260507041923 | 8 | 163 | 4.8 | 9.7 | 0.00 | 0.00 | 0.00 | 85 | 1012.1 |
| 20260507041354 | 8 | 186 | 3.2 | 6.4 | 0.00 | 0.00 | 0.00 | 85 | 1012.1 |
| 20260507040855 | 8 | 175 | 3.2 | 9.7 | 0.00 | 0.00 | 0.00 | 84 | 1012.2 |
| 20260507040349 | 8 | 161 | 4.8 | 9.7 | 0.00 | 0.00 | 0.00 | 84 | 1012.1 |
| 20260507035847 | 8 | 150 | 4.8 | 8.0 | 0.00 | 0.00 | 0.00 | 84 | 1012.1 |
| 20260507035409 | 8 | 183 | 6.4 | 12.9 | 0.00 | 0.00 | 0.00 | 84 | 1012.1 |
| 20260507034925 | 8 | 180 | 8.0 | 12.9 | 0.00 | 0.00 | 0.00 | 85 | 1012.1 |
| 20260507034342 | 8 | 177 | 4.8 | 9.7 | 0.00 | 0.00 | 0.00 | 84 | 1012.1 |
| 20260507033839 | 8 | 158 | 4.8 | 9.7 | 0.00 | 0.00 | 0.00 | 85 | 1012.2 |
| 20260507033353 | 8 | 193 | 6.4 | 9.7 | 0.00 | 0.00 | 0.00 | 85 | 1012.2 |
| 20260507032846 | 8 | 186 | 4.8 | 9.7 | 0.00 | 0.00 | 0.00 | 85 | 1012.2 |
| 20260507032345 | 8 | 195 | 4.8 | 8.0 | 0.00 | 0.00 | 0.00 | 85 | 1012.2 |
| 20260507031840 | 8 | 165 | 3.2 | 8.0 | 0.00 | 0.00 | 0.00 | 85 | 1012.2 |
| 20260507031418 | 8 | 192 | 4.8 | 8.0 | 0.00 | 0.00 | 0.00 | 85 | 1012.2 |
| 20260507030850 | 8 | 198 | 6.4 | 8.0 | 0.00 | 0.00 | 0.00 | 85 | 1012.2 |
| 20260507030353 | 8 | 191 | 4.8 | 8.0 | 0.00 | 0.00 | 0.00 | 85 | 1012.2 |
| 20260507025850 | 8 | 201 | 4.8 | 9.7 | 0.00 | 0.00 | 0.00 | 84 | 1012.2 |
| 20260507025349 | 8 | 186 | 4.8 | 6.4 | 0.00 | 0.00 | 0.00 | 84 | 1012.2 |
| 20260507024910 | 8 | 150 | 4.8 | 8.0 | 0.00 | 0.00 | 0.00 | 84 | 1012.3 |
| 20260507024340 | 8 | 160 | 1.6 | 4.8 | 0.00 | 0.00 | 0.00 | 84 | 1012.3 |
| 20260507023859 | 8 | 160 | 1.6 | 8.0 | 0.00 | 0.00 | 0.00 | 84 | 1012.3 |
| 20260507023350 | 8 | 164 | 4.8 | 8.0 | 0.00 | 0.00 | 0.00 | 84 | 1012.3 |
| 20260507022850 | 8 | 155 | 4.8 | 9.7 | 0.00 | 0.00 | 0.00 | 84 | 1012.3 |
| 20260507022405 | 8 | 156 | 6.4 | 9.7 | 0.00 | 0.00 | 0.00 | 84 | 1012.3 |
| 20260507021844 | 8 | 159 | 4.8 | 8.0 | 0.00 | 0.00 | 0.00 | 83 | 1012.3 |